GEFSMA_500_meanwind_288.txt.gz
Wind_Speed
3 3 3 3 2 2 2 2 4 3 3 3 2 2 2 2 2 1 1 0 2 4 4 5 6 7 8 8 8 8 9 10 10 11 11 11 10 9 9 10 12 13 13
4 4 3 3 3 2 2 2 3 3 3 3 3 3 3 3 3 2 2 2 3 4 5 6 7 7 7 8 7 7 8 9 9 9 10 11 11 10 10 10 11 12 13
4 5 4 4 4 4 4 3 4 4 3 3 3 3 3 3 3 3 3 3 3 4 5 6 7 7 6 6 6 7 8 9 9 9 10 10 10 11 11 10 10 11 12
5 6 6 6 5 5 5 5 5 5 4 4 4 3 2 3 3 3 3 4 4 5 6 6 7 7 6 6 7 8 8 9 9 9 9 10 10 11 11 11 11 11 12
6 6 7 7 6 6 6 5 5 5 5 4 4 3 2 2 3 3 4 5 5 6 6 7 6 7 7 7 8 8 8 9 9 8 8 9 10 11 11 11 12 12 12
6 6 6 6 6 5 5 5 5 5 5 4 4 4 4 4 4 5 4 5 6 6 7 7 7 7 8 8 8 8 9 8 8 8 8 9 10 11 11 11 12 12 13
6 6 5 6 6 5 5 5 5 5 5 4 3 3 4 4 4 5 5 6 7 7 7 7 8 8 8 8 9 9 9 8 8 8 8 8 8 10 11 12 12 12 12
7 6 6 6 6 5 5 5 5 5 5 5 4 4 4 4 4 5 6 6 7 8 8 8 9 9 9 9 9 8 9 9 8 8 8 9 9 9 11 11 11 11 11
6 6 6 6 6 6 5 5 5 5 5 5 4 4 5 5 5 6 7 7 8 8 9 9 9 9 9 10 10 9 9 9 9 9 9 9 10 10 10 11 11 12 12
5 5 5 5 5 5 4 4 4 5 5 5 4 4 5 6 6 6 7 7 8 8 9 9 9 9 9 10 10 10 10 10 9 9 9 10 10 10 11 12 12 11 12
5 4 4 4 4 4 4 4 5 5 5 5 5 5 5 6 7 7 8 8 8 9 9 9 10 10 10 10 10 10 10 10 10 10 11 11 11 11 11 11 11 12 12
4 3 3 3 3 4 4 4 5 5 5 6 6 6 7 7 8 8 9 10 10 11 10 11 11 11 11 11 11 11 11 11 10 11 11 11 11 11 11 11 11 13 13
4 3 3 3 3 4 5 5 6 6 6 6 6 7 8 8 8 9 9 10 11 12 12 12 12 12 12 12 13 13 13 12 12 11 11 12 11 11 12 12 12 13 14
4 4 4 4 4 5 5 6 6 7 6 6 7 8 9 9 9 10 10 11 11 12 12 13 12 12 12 13 13 13 14 13 13 13 12 12 13 13 13 13 13 14 14
4 5 5 5 5 5 6 6 7 7 7 7 8 9 9 10 11 11 11 11 11 11 12 13 13 13 14 14 14 14 14 14 14 14 14 13 13 14 14 14 14 15 15
5 5 6 7 6 6 7 7 7 8 8 8 9 9 10 11 11 12 12 12 12 12 13 14 14 14 14 14 15 15 16 16 16 16 15 15 15 15 15 16 16 17 17
6 6 7 7 7 7 8 8 8 9 9 9 10 11 11 12 13 12 13 14 14 14 15 16 16 17 17 17 17 16 17 17 17 17 17 16 16 17 17 17 18 19 19
7 7 7 8 8 9 9 9 10 10 11 12 12 13 13 13 13 14 14 15 16 16 17 18 18 19 19 19 19 19 18 18 18 18 18 18 18 18 19 19 19 20 20
9 9 9 9 10 10 10 10 11 12 13 13 14 15 14 15 15 15 16 17 17 18 19 19 20 21 21 22 22 21 20 19 19 19 19 20 20 21 21 21 21 21 21
10 10 10 10 11 11 11 12 13 14 14 15 15 16 16 16 16 17 18 19 19 20 21 22 22 22 23 23 23 23 23 22 21 21 21 21 21 22 22 22 22 23 23
12 12 12 12 12 13 13 14 15 15 15 16 16 17 18 18 19 19 19 20 21 22 23 24 24 24 25 25 25 25 24 24 24 23 23 23 23 23 23 24 24 24 24
14 14 14 14 14 14 15 16 17 17 17 18 18 19 19 20 21 21 22 22 23 24 25 26 26 26 26 26 26 26 26 26 25 25 25 25 24 24 24 24 25 25 24
16 16 15 15 16 16 17 18 19 19 19 20 20 21 21 22 23 23 24 24 25 26 27 28 27 27 27 27 27 27 27 27 26 26 26 25 25 25 25 25 25 25 25
18 18 18 18 18 19 19 20 21 21 21 21 22 23 23 24 25 25 26 27 28 28 29 29 29 29 29 29 28 28 28 28 27 27 27 26 26 26 26 26 26 26 26
20 20 20 21 21 21 21 22 22 23 23 23 24 25 25 25 26 27 28 28 29 29 29 29 30 30 30 30 30 30 29 29 28 28 28 27 27 28 27 27 26 26 26
22 23 23 23 23 23 24 25 25 25 25 26 26 27 28 27 28 28 29 30 30 30 30 30 30 30 30 31 31 31 31 30 29 29 30 29 29 29 28 27 27 27 27

GEFSMA_500_meanwind_294.txt.gz
Wind_Speed
4 4 4 3 2 2 1 1 0 0 0 1 1 2 2 2 3 3 4 4 4 4 4 5 6 7 7 8 8 8 8 9 9 8 8 9 10 11 11 11 11 11 11
4 4 3 3 2 2 1 1 1 1 1 1 1 1 2 2 3 4 4 4 4 5 5 5 6 6 6 6 7 7 8 8 9 9 8 9 10 10 11 11 11 11 12
5 5 5 5 3 2 1 1 1 1 1 2 2 2 2 2 3 4 4 4 4 5 5 5 5 6 6 7 7 7 7 7 8 8 8 8 8 9 11 12 12 12 12
6 6 6 5 4 3 3 3 2 3 3 3 3 3 3 3 3 4 4 4 5 5 5 6 6 6 6 7 7 7 7 7 7 7 7 7 8 9 10 11 11 12 12
6 6 5 5 4 4 4 4 3 3 3 3 3 3 3 3 4 5 5 5 5 5 5 6 6 7 7 7 7 7 6 7 8 8 8 8 9 10 11 11 11 12 12
6 5 4 4 4 4 4 3 3 3 3 3 3 4 3 3 4 5 5 5 5 6 6 7 7 7 7 8 8 8 7 8 8 8 9 9 10 11 12 11 12 12 13
5 5 4 4 4 4 3 4 4 3 3 3 3 4 4 4 5 5 6 6 7 7 7 7 7 7 7 8 9 9 9 10 9 9 8 9 10 11 11 11 12 13 13
5 4 4 4 4 4 4 4 4 4 4 4 4 4 4 5 5 6 7 7 7 7 7 7 7 8 8 9 9 10 10 10 10 10 10 10 10 11 11 11 12 13 13
5 5 4 4 3 4 4 4 4 5 5 4 5 5 5 6 6 7 7 7 8 8 8 8 7 8 9 10 10 10 11 10 10 10 11 11 11 12 12 12 13 13 14
4 3 4 4 3 3 4 4 5 5 5 5 5 6 7 7 8 9 8 8 8 8 8 8 8 9 10 11 11 11 11 11 12 12 12 12 12 12 13 13 13 14 14
4 3 3 3 3 3 4 4 5 5 5 6 6 7 7 8 9 9 9 10 9 10 10 10 10 11 12 12 12 12 12 12 13 13 14 13 13 13 14 13 13 14 14
4 3 3 3 4 4 4 5 5 6 6 6 7 8 8 9 9 9 10 11 11 11 11 11 11 12 12 12 12 12 13 14 14 14 14 14 14 14 14 14 14 14 15
4 3 3 4 4 4 5 6 6 7 7 7 8 9 9 9 9 10 10 11 12 12 12 13 13 13 13 13 13 13 13 13 14 15 15 15 15 14 15 15 15 15 15
4 4 5 5 5 5 6 7 7 8 8 9 9 10 10 10 10 10 11 11 12 12 13 13 14 14 15 14 14 14 14 15 15 16 16 15 15 15 15 15 15 15 15
5 6 6 6 6 6 7 8 8 9 10 10 10 11 11 11 12 12 12 12 12 13 13 14 15 16 16 17 17 16 17 17 17 16 16 16 16 16 16 15 15 16 16
6 7 7 7 7 7 8 9 9 10 10 10 11 12 13 13 13 13 13 14 14 14 14 15 16 17 17 18 18 18 18 18 17 17 17 17 17 17 17 17 16 16 17
8 8 8 9 9 9 10 10 11 11 11 12 13 13 14 14 14 14 15 15 15 16 16 16 17 18 19 19 20 20 20 20 20 19 19 19 19 19 19 18 18 18 18
10 10 11 11 11 12 12 13 13 13 13 13 14 14 15 16 16 16 16 17 17 18 18 18 19 20 21 21 22 21 21 22 22 21 21 21 21 21 21 20 20 20 20
12 12 13 13 14 14 14 15 15 15 15 15 16 16 17 17 17 18 18 19 19 20 20 20 21 21 22 23 23 23 23 23 23 24 23 23 23 22 22 22 22 22 22
14 14 14 15 15 15 16 16 16 17 17 17 17 18 19 19 19 20 20 21 21 22 22 23 23 24 24 24 24 25 25 25 25 25 25 24 24 23 23 23 23 24 24
15 16 16 16 16 17 18 18 18 19 19 19 19 20 21 21 21 22 22 23 24 24 24 25 25 26 26 26 27 27 26 26 26 25 25 25 25 25 24 25 25 25 26
17 17 18 18 18 19 20 20 20 21 21 21 22 22 23 23 23 24 25 25 26 26 27 28 28 28 28 28 28 28 28 28 27 27 26 26 27 27 27 27 26 27 27
19 19 20 20 21 21 22 23 23 24 23 23 24 24 25 26 26 27 27 28 28 29 29 29 29 29 29 29 30 29 29 29 29 28 28 28 28 29 29 28 28 28 29
22 22 22 22 23 23 24 24 25 26 26 26 26 27 28 29 30 30 31 30 30 31 31 31 31 31 31 31 31 30 30 30 30 29 29 29 29 30 30 30 30 30 30
24 24 24 24 24 25 26 27 27 28 28 28 29 30 31 31 32 33 33 33 33 33 33 33 32 32 32 33 33 32 32 31 31 31 31 31 31 30 30 30 30 30 30
25 26 26 26 26 26 27 28 29 30 30 30 30 30 31 32 33 34 34 35 35 35 35 35 34 34 34 34 34 34 34 33 32 32 33 33 33 32 31 30 31 31 30

GEFSMA_500_meanwind_300.txt.gz
Wind_Speed
5 5 5 3 2 2 2 2 3 3 3 2 2 2 2 2 2 3 4 5 5 6 6 6 5 6 5 6 7 7 7 7 8 9 10 10 10 11 11 12 12 12 12
5 5 4 3 2 2 2 2 2 3 3 3 3 2 3 3 3 3 4 5 6 6 5 5 5 5 6 6 7 7 7 8 8 9 9 10 10 11 12 13 13 13 12
6 5 4 3 3 3 2 2 3 3 3 3 3 3 3 4 4 5 5 6 6 6 5 5 5 5 6 6 7 7 7 8 9 9 10 10 9 10 11 12 13 13 13
5 4 3 3 3 3 2 2 2 2 2 2 3 3 3 4 5 6 6 7 6 6 6 5 5 6 6 7 7 7 8 9 9 10 10 10 10 10 11 12 12 12 12
4 4 3 3 3 3 2 2 3 2 2 2 2 3 4 5 6 7 7 7 7 6 6 6 6 7 7 7 7 8 8 9 9 10 9 9 9 10 10 11 11 12 12
4 4 4 3 3 3 2 2 2 2 2 2 3 3 4 5 6 7 7 7 7 7 7 7 7 7 7 8 8 8 9 10 10 10 10 10 10 10 11 11 12 12 12
4 4 4 4 3 3 3 3 3 2 2 3 4 5 5 6 6 7 8 8 7 7 7 7 7 7 8 8 9 9 10 10 9 9 10 10 11 11 11 11 12 13 13
3 3 3 2 3 3 3 4 4 4 3 4 4 5 6 6 7 8 8 8 8 8 8 8 8 9 9 9 10 10 10 10 10 10 10 11 11 11 11 11 12 13 13
3 3 3 3 2 3 3 3 4 4 4 4 5 5 6 7 7 8 8 8 8 8 9 9 9 10 10 10 10 10 11 10 11 11 12 12 12 12 11 12 12 12 13
3 3 3 3 2 2 2 3 4 5 5 5 6 6 7 8 9 9 9 9 9 9 9 10 10 10 10 10 11 11 11 11 12 12 12 12 13 12 12 12 12 12 13
3 3 2 3 3 3 3 4 5 5 5 6 7 7 8 9 9 10 10 10 10 10 11 11 11 11 11 11 12 12 12 12 13 13 13 13 13 13 13 13 13 13 14
3 3 3 4 4 5 5 5 5 6 6 7 7 8 8 9 9 10 10 10 11 11 12 12 12 12 12 12 13 13 13 13 13 13 13 13 13 13 14 14 14 14 14
4 4 4 4 5 6 5 5 6 6 7 8 8 9 10 10 10 11 11 11 12 12 12 12 13 13 14 14 14 14 13 13 13 14 14 14 14 14 14 14 15 14 14
5 5 5 5 6 6 6 6 7 8 8 9 9 10 11 11 12 12 12 12 12 12 13 13 13 14 14 15 15 15 15 14 14 15 15 15 15 15 15 15 15 15 15
6 6 6 6 8 8 8 8 9 9 10 11 11 11 12 13 13 13 13 13 13 13 14 14 14 15 15 15 16 16 16 15 15 16 16 16 16 16 16 16 16 16 15
7 8 8 8 9 10 10 10 10 11 12 12 12 13 14 14 15 15 15 15 15 15 15 15 16 16 17 17 17 17 17 17 17 17 17 17 17 17 17 17 17 17 17
9 9 9 10 10 11 11 12 12 13 14 14 14 14 15 16 16 17 17 17 16 16 17 17 17 18 18 19 19 19 19 20 19 18 19 19 19 19 19 19 19 19 19
10 10 11 12 12 13 13 13 14 15 15 15 16 16 17 17 18 18 18 18 18 18 19 19 19 19 20 20 21 21 21 21 21 21 21 21 21 22 21 21 21 20 20
12 13 13 13 14 14 15 16 16 17 17 17 17 18 18 19 19 20 20 20 20 20 20 21 21 22 22 22 23 23 23 23 23 23 23 23 23 23 23 22 22 22 22
15 15 15 15 15 16 17 17 18 18 18 18 19 20 20 21 21 21 22 22 22 22 22 23 24 24 24 24 25 25 25 25 25 25 25 25 25 25 25 24 23 23 23
16 16 16 16 16 17 18 18 18 19 20 21 21 22 22 22 23 23 24 24 24 24 25 25 26 27 27 27 26 27 27 27 27 27 27 27 27 27 27 26 26 25 25
17 17 17 17 17 18 19 19 20 21 22 22 23 23 23 23 24 24 25 25 26 26 27 27 28 28 28 28 29 29 29 28 28 28 28 28 28 28 28 28 28 27 26
19 19 18 18 19 19 20 22 23 23 24 24 25 25 25 25 25 26 26 27 28 28 28 29 29 29 29 30 30 30 31 31 30 30 29 29 29 29 29 29 28 28 28
20 20 20 21 21 22 23 24 24 25 25 26 26 26 26 27 27 28 29 29 30 30 30 30 30 31 31 31 31 32 31 31 31 30 30 30 30 31 31 30 30 30 30
22 22 23 23 24 24 25 26 27 27 27 27 27 28 28 29 29 30 30 31 31 32 32 32 32 32 33 33 33 33 33 33 32 31 32 32 31 32 32 32 32 31 31
25 25 25 26 26 26 27 28 28 29 29 29 29 29 30 30 31 32 32 32 33 33 34 34 34 34 34 34 35 35 35 34 34 34 33 33 33 33 33 32 32 32 32

GEFSMA_500_meanwind_306.txt.gz
Wind_Speed
3 3 3 4 4 4 4 4 4 5 6 6 6 7 7 7 7 6 6 7 7 7 7 7 7 7 6 6 6 6 7 7 7 7 8 8 8 9 9 10 11 12 12
3 3 3 4 4 4 4 4 4 5 6 6 6 6 7 7 8 8 7 7 8 8 8 8 8 8 7 7 7 7 7 8 8 8 8 8 9 9 10 10 11 12 12
4 4 3 4 4 5 4 5 5 5 5 6 6 6 7 8 8 9 8 8 8 8 9 9 8 8 8 8 8 9 9 9 9 8 8 8 8 9 10 10 11 12 13
4 4 3 4 4 4 4 5 5 5 6 6 6 6 7 7 8 9 9 9 9 9 9 9 9 9 9 9 9 9 9 9 9 9 9 9 9 10 10 10 11 12 12
4 4 4 4 4 4 4 4 4 5 6 6 6 7 7 7 8 8 10 10 10 10 10 10 10 10 9 9 9 9 9 10 10 9 9 9 10 10 10 10 11 11 10
4 4 5 5 4 5 4 4 4 5 6 6 6 7 8 8 8 9 10 10 11 11 11 11 10 10 10 10 10 10 10 10 10 10 10 10 9 10 10 10 11 11 11
4 4 4 4 4 5 5 4 5 6 6 6 7 8 8 8 9 9 9 10 11 11 11 11 11 10 10 10 10 10 10 9 9 9 10 10 10 10 10 11 11 11 11
4 4 4 4 4 5 5 5 6 6 7 7 7 8 8 9 10 10 10 11 11 11 11 12 11 11 10 10 10 9 10 9 9 9 9 9 10 10 11 11 10 10 11
6 6 6 6 5 5 5 6 7 7 7 8 8 9 10 10 10 11 11 11 11 11 11 12 12 12 11 10 10 10 10 10 10 9 10 10 10 10 11 11 10 10 11
6 6 6 6 6 6 6 7 8 8 8 9 9 10 10 11 11 11 12 12 11 12 12 12 13 13 12 11 10 10 10 10 10 10 10 11 11 11 12 12 11 11 11
6 6 6 6 6 7 7 7 8 8 9 9 10 10 11 12 12 13 13 13 13 13 13 13 13 13 13 12 12 11 11 11 11 11 11 11 12 12 13 13 12 12 12
6 6 5 6 6 6 7 7 8 8 9 9 10 11 11 12 12 13 14 14 14 14 13 13 13 13 13 13 13 13 13 12 12 12 12 12 13 13 13 13 14 14 14
6 6 6 6 6 7 7 8 8 9 9 10 11 11 12 12 13 13 14 14 14 14 14 14 15 15 14 15 14 14 14 14 13 13 13 14 14 14 14 15 15 15 15
8 7 7 7 7 7 8 8 8 9 10 11 11 12 12 13 13 14 15 15 15 15 15 15 14 15 15 15 14 14 14 14 14 14 14 15 15 15 15 16 16 16 16
9 9 8 9 9 9 9 9 10 11 11 11 12 12 13 14 14 15 16 16 16 16 15 15 15 15 15 16 16 16 16 15 15 15 15 15 16 16 16 16 16 16 16
10 9 10 10 10 10 10 10 11 12 12 13 13 14 14 15 15 16 17 17 18 17 17 16 16 16 16 17 17 17 17 17 17 18 17 17 17 17 17 18 17 18 17
10 10 11 11 12 12 12 12 12 13 14 14 15 15 16 17 17 18 18 18 19 19 19 19 18 18 18 18 18 18 18 19 20 20 20 20 20 19 19 19 19 19 19
11 11 12 12 13 13 13 13 14 14 15 16 16 17 18 18 18 19 19 20 20 20 20 20 20 20 19 19 20 20 20 20 21 21 21 21 21 21 21 21 20 20 21
13 13 13 14 14 14 14 14 15 16 17 17 18 18 19 19 20 20 21 21 21 21 22 21 21 21 21 21 21 21 22 22 22 22 22 22 22 23 23 22 22 21 21
14 14 14 15 15 15 15 16 17 17 18 18 19 19 20 21 21 22 22 22 23 23 23 23 24 24 23 23 23 24 24 24 24 24 24 24 24 24 24 24 23 23 24
16 15 16 16 16 16 17 18 18 18 19 20 20 21 21 22 23 24 24 25 25 25 25 26 26 26 26 26 26 27 26 26 26 26 26 26 25 25 25 25 25 24 25
17 17 17 18 18 19 19 20 20 20 21 21 22 23 23 23 24 25 26 26 27 27 27 28 28 28 28 28 29 29 29 28 28 28 28 27 27 27 27 27 26 26 26
19 19 19 19 20 21 21 21 21 22 22 23 24 24 24 25 25 26 27 28 29 29 29 30 30 31 31 31 31 31 30 30 30 30 29 29 29 28 29 29 29 29 28
21 21 21 22 22 23 23 24 24 23 24 25 25 25 26 27 27 28 29 30 31 31 32 33 33 33 33 32 33 33 33 33 33 32 32 32 31 31 31 31 30 29 29
24 24 24 24 25 25 25 25 25 25 25 26 27 27 28 29 29 30 31 32 33 33 34 34 34 35 35 34 34 34 34 34 34 33 34 34 33 33 33 32 31 31 31
27 27 26 27 27 27 26 26 27 27 27 28 28 29 29 30 31 32 33 33 33 34 35 35 35 35 35 35 35 35 34 34 35 35 34 35 35 35 33 32 32 33 33